EW5697 Weather Reports


Display with metric or nautical units.
time (UTC)temp
F
wind
direction
speed
MPH
gust
MPH
rain 1hr
in
rain 24hr
in
rain mn
in
humidity
%
barometer
mb
20260901161546 57 212 0.0 3.0 0.00 0.00 0.00 58 1012.7
20260901160058 56 260 0.0 10.0 0.00 0.00 0.00 62 1012.6
20260901154534 54 145 0.0 3.0 0.00 0.00 0.00 65 1012.5
20260901153032 53 160 0.0 6.0 0.00 0.00 0.00 67 1012.5
20260901151529 53 160 0.0 8.0 0.00 0.00 0.00 68 1012.5
20260901150028 52 137 0.0 1.0 0.00 0.00 0.00 69 1012.4
20260901144526 52 135 0.0 3.0 0.00 0.00 0.00 69 1012.2
20260901143023 51 122 0.0 4.0 0.00 0.00 0.00 69 1012.0
20260901141521 52 212 0.0 2.0 0.00 0.00 0.00 69 1011.9
20260901140120 52 224 0.0 0.0 0.00 0.00 0.00 68 1011.9
20260901134525 52 152 0.0 2.0 0.00 0.00 0.00 66 1011.8
20260901133018 52 174 0.0 0.0 0.00 0.00 0.00 66 1011.8
20260901131518 52 180 0.0 1.0 0.00 0.00 0.00 66 1011.7
20260901130023 52 143 0.0 2.0 0.00 0.00 0.00 67 1011.7
20260901124522 52 217 0.0 7.0 0.00 0.00 0.00 67 1011.9
20260901123032 53 145 0.0 3.0 0.00 0.00 0.00 66 1012.1
20260901121512 53 153 0.0 9.0 0.00 0.00 0.00 65 1012.1
20260901120010 53 131 0.0 10.0 0.00 0.00 0.00 65 1012.2
20260901114507 53 180 0.0 2.0 0.00 0.00 0.00 64 1011.9
20260901113005 54 164 0.0 11.0 0.00 0.00 0.00 64 1011.7
20260901111505 54 139 0.0 6.0 0.00 0.00 0.00 64 1011.6
20260901110003 54 131 0.0 5.0 0.00 0.00 0.00 63 1011.7
20260901104601 55 160 0.0 8.0 0.00 0.00 0.00 62 1011.6
20260901103057 55 161 0.0 5.0 0.00 0.00 0.00 61 1011.7
20260901101554 56 168 0.0 1.0 0.00 0.00 0.00 59 1011.7
20260901100055 56 123 0.0 6.0 0.00 0.00 0.00 58 1011.7
20260901094550 57 160 0.0 1.0 0.00 0.00 0.00 56 1011.8
20260901093047 57 207 0.0 1.0 0.00 0.00 0.00 54 1011.8
20260901091545 58 172 0.0 1.0 0.00 0.00 0.00 52 1011.8
20260901090042 58 216 0.0 2.0 0.00 0.00 0.00 50 1011.6
20260901084539 59 166 0.0 2.0 0.00 0.00 0.00 50 1011.5
20260901083036 59 158 0.0 2.0 0.00 0.00 0.00 48 1011.7
20260901081536 60 207 0.0 4.0 0.00 0.00 0.00 47 1011.8
20260901080033 60 193 0.0 3.0 0.00 0.00 0.00 44 1011.8
20260901074529 60 229 0.0 4.0 0.00 0.00 0.00 43 1011.7
20260901073030 61 131 0.0 6.0 0.00 0.00 0.00 42 1011.8
20260901071527 61 174 0.0 8.0 0.00 0.00 0.00 41 1011.8
20260901070024 61 181 0.0 6.0 0.00 0.00 0.00 40 1011.8
20260901064525 62 188 0.0 10.0 0.00 0.00 0.00 39 1011.9
20260901063031 62 166 0.0 12.0 0.00 0.00 0.00 38 1011.8
20260901061522 63 174 0.0 18.0 0.00 0.00 0.00 34 1011.6
20260901060022 63 212 0.0 13.0 0.00 0.00 0.00 33 1011.6
20260901054522 63 148 0.0 9.0 0.00 0.00 0.00 31 1011.8
20260901053024 64 133 0.0 17.0 0.00 0.00 0.00 29 1011.4
20260901051532 64 245 0.0 15.0 0.00 0.00 0.00 28 1011.3
20260901050020 64 114 1.0 14.0 0.00 0.00 0.00 28 1011.4
20260901044519 65 160 0.0 3.0 0.00 0.00 0.00 29 1011.6
20260901043029 65 147 0.0 9.0 0.00 0.00 0.00 30 1011.6
20260901041518 65 146 0.0 3.0 0.00 0.00 0.00 30 1011.5
20260901040023 66 129 0.0 4.0 0.00 0.00 0.00 29 1011.3
20260901034518 66 93 0.0 2.0 0.00 0.00 0.00 29 1011.2
20260901033018 67 161 0.0 6.0 0.00 0.00 0.00 28 1011.0
20260901031517 68 134 0.0 2.0 0.00 0.00 0.00 27 1010.7
20260901030015 68 124 0.0 3.0 0.00 0.00 0.00 26 1010.5
20260901024514 69 135 0.0 15.0 0.00 0.00 0.00 27 1010.4
20260901023013 70 145 0.0 11.0 0.00 0.00 0.00 26 1010.4
20260901021632 71 124 0.0 13.0 0.00 0.00 0.00 25 1010.4
20260901020012 73 124 0.0 2.0 0.00 0.00 0.00 25 1010.4
20260901014513 75 166 0.0 2.0 0.00 0.00 0.00 24 1010.5
20260901013014 76 178 0.0 2.0 0.00 0.00 0.00 23 1010.6
20260901011512 77 149 0.0 3.0 0.00 0.00 0.00 21 1010.6
20260901010009 78 179 0.0 8.0 0.00 0.00 0.00 22 1010.7
20260901004509 79 194 0.0 9.0 0.00 0.00 0.00 19 1010.8
20260901003009 79 137 0.0 4.0 0.00 0.00 0.00 20 1010.6
20260901001506 79 197 0.0 6.0 0.00 0.00 0.00 20 1010.6
20260901000006 80 188 0.0 6.0 0.00 0.00 0.00 18 1010.6
20260831234507 81 193 0.0 10.0 0.00 0.00 0.00 20 1010.6
20260831233004 80 141 0.0 11.0 0.00 0.00 0.00 18 1010.7
20260831231502 81 135 0.0 17.0 0.00 0.00 0.00 16 1010.8
20260831230001 81 154 0.0 14.0 0.00 0.00 0.00 17 1011.0
20260831224600 81 149 0.0 13.0 0.00 0.00 0.00 16 1011.2
20260831224500 81 143 0.0 13.0 0.00 0.00 0.00 16 1011.2
20260831223101 82 185 0.0 10.0 0.00 0.00 0.00 15 1011.0
20260831221556 83 224 0.0 5.0 0.00 0.00 0.00 18 1011.0
20260831220056 83 108 0.0 3.0 0.00 0.00 0.00 18 1011.1
20260831214554 82 138 0.0 11.0 0.00 0.00 0.00 18 1011.2
20260831213057 82 180 0.0 12.0 0.00 0.00 0.00 18 1011.4
20260831211549 82 192 0.0 4.0 0.00 0.00 0.00 19 1011.4
20260831210047 82 174 0.0 12.0 0.00 0.00 0.00 19 1011.6
20260831204547 81 122 0.0 6.0 0.00 0.00 0.00 20 1011.7
20260831203043 80 95 0.0 14.0 0.00 0.00 0.00 22 1011.8
20260831201541 80 141 0.0 4.0 0.00 0.00 0.00 23 1011.9
20260831200039 79 153 0.0 2.0 0.00 0.00 0.00 24 1012.1
20260831194604 79 167 0.0 6.0 0.00 0.00 0.00 24 1012.2
20260831193032 78 160 0.0 2.0 0.00 0.00 0.00 24 1012.5
20260831191527 76 147 0.0 1.0 0.00 0.00 0.00 26 1012.6
20260831190024 75 130 0.0 10.0 0.00 0.00 0.00 26 1012.8
20260831184520 75 127 0.0 5.0 0.00 0.00 0.00 27 1012.9
20260831183017 74 149 0.0 15.0 0.00 0.00 0.00 28 1012.8
20260831181514 73 143 0.0 1.0 0.00 0.00 0.00 29 1012.9
20260831180010 73 112 0.0 1.0 0.00 0.00 0.00 30 1013.0
20260831174520 72 146 0.0 1.0 0.00 0.00 0.00 33 1013.2
20260831173006 71 232 0.0 6.0 0.00 0.00 0.00 34 1013.2
20260831171503 70 181 0.0 1.0 0.00 0.00 0.00 34 1013.1
20260831170059 69 87 0.0 3.0 0.00 0.00 0.00 37 1013.2
20260831164600 68 174 0.0 1.0 0.00 0.00 0.00 37 1013.2
20260831163051 67 176 0.0 1.0 0.00 0.00 0.00 37 1013.2